Naturita, CO

10:08 AM MST on December 07, 2016 (GMT -0700)
Nucla Hopkins Field Airport

Weather History for KAIB - March, 2014

Change the Weather History Date:

Wednesday, March 19, 2014

  Actual Average (KMTJ) Record (KMTJ)
Temperature  
Mean Temperature 37 °F 42 °F  
Max Temperature 51 °F 55 °F 75 °F (2004)
Min Temperature 23 °F 29 °F 21 °F (2002)
Degree Days  
Heating Degree Days 28 23  
Month to date heating degree days 484  
Since 1 July heating degree days 5199  
Cooling Degree Days 0 0  
Month to date cooling degree days 0  
Year to date cooling degree days 0  
Moisture  
Dew Point 13 °F    
Average Humidity 43    
Maximum Humidity 69    
Minimum Humidity 18    
Precipitation  
Precipitation 0.00 in 0.03 in 0.02 in (2015)
Month to date precipitation 0.60  
Year to date precipitation 1.83  
Sea Level Pressure  
Sea Level Pressure 30.22 in    
Wind  
Wind Speed 6 mph (East)    
Max Wind Speed 12 mph    
Max Gust Speed -    
Visibility 10 miles    
Events      
T = Trace of Precipitation, MM = Missing Value Source: NWS Daily Summary

Daily Weather History Graph

Daily Weather History Graph

Search for Another Location

Airport or City:

Trip Planner

Search our weather history database for the weather conditions in past years. The results will help you decide how hot, cold, wet, or windy it might be!

Date:

Astronomy

Mar. 19, 2014 Rise Set
Actual Time 7:19 AM MDT 7:25 PM MDT
Civil Twilight 6:52 AM MDT 7:51 PM MDT
Nautical Twilight 6:22 AM MDT 8:22 PM MDT
Astronomical Twilight 5:50 AM MDT 8:53 PM MDT
Moon 10:43 PM MDT (3/19) 8:49 AM MDT (3/19)
Length of Visible Light 12h 58m
Length of Day
12h 06m
Waning Gibbous, 91% of the Moon is Illuminated
Mar 19
Waning Gibbous
Mar 23
Last Quarter
Mar 30
New
Apr 7
First Quarter
Apr 15
Full

Hourly Weather History & Observations

Time (MDT) Temp. Windchill Dew Point Humidity Pressure Visibility Wind Dir Wind Speed Gust Speed Precip Events Conditions
12:15 AM 30.2 °F 22.6 °F 17.6 °F 60% 30.11 in 10.0 mi East 8.1 mph - N/A   Clear
12:35 AM 30.2 °F 23.4 °F 17.6 °F 60% 30.11 in 10.0 mi East 6.9 mph - N/A   Scattered Clouds
12:55 AM 30.2 °F 22.6 °F 17.6 °F 60% 30.11 in 10.0 mi East 8.1 mph - N/A   Scattered Clouds
1:15 AM 30.2 °F 21.9 °F 17.6 °F 60% 30.12 in 10.0 mi ESE 9.2 mph - N/A   Clear
1:35 AM 28.4 °F 19.7 °F 17.6 °F 64% 30.12 in 10.0 mi East 9.2 mph - N/A   Clear
1:55 AM 28.4 °F 20.4 °F 17.6 °F 64% 30.12 in 10.0 mi ESE 8.1 mph - N/A   Clear
2:15 AM 28.4 °F 20.4 °F 17.6 °F 64% 30.13 in 10.0 mi ESE 8.1 mph - N/A   Clear
2:35 AM 26.6 °F 17.5 °F 15.8 °F 64% 30.13 in 10.0 mi East 9.2 mph - N/A   Clear
2:55 AM 28.4 °F 21.2 °F 15.8 °F 59% 30.14 in 10.0 mi East 6.9 mph - N/A   Clear
3:15 AM 26.6 °F - 15.8 °F 64% 30.15 in 10.0 mi Calm Calm - N/A   Clear
3:35 AM 26.6 °F 22.6 °F 15.8 °F 64% 30.15 in 10.0 mi ENE 3.5 mph - N/A   Clear
3:55 AM 24.8 °F 16.9 °F 15.8 °F 69% 30.16 in 10.0 mi East 6.9 mph - N/A   Clear
4:15 AM 26.6 °F 20.0 °F 15.8 °F 64% 30.17 in 10.0 mi East 5.8 mph - N/A   Clear
4:35 AM 24.8 °F 19.1 °F 15.8 °F 69% 30.18 in 10.0 mi ESE 4.6 mph - N/A   Clear
4:55 AM 26.6 °F 22.6 °F 15.8 °F 64% 30.18 in 10.0 mi South 3.5 mph - N/A   Clear
5:15 AM 23.0 °F - 14.0 °F 68% 30.19 in 10.0 mi Calm Calm - N/A   Clear
5:35 AM 24.8 °F - 14.0 °F 64% 30.20 in 10.0 mi Calm Calm - N/A   Clear
5:55 AM 23.0 °F 14.7 °F 14.0 °F 68% 30.21 in 10.0 mi East 6.9 mph - N/A   Clear
6:15 AM 24.8 °F 15.3 °F 14.0 °F 64% 30.21 in 10.0 mi ESE 9.2 mph - N/A   Clear
6:35 AM 23.0 °F 12.4 °F 14.0 °F 68% 30.22 in 10.0 mi East 10.4 mph - N/A   Clear
6:55 AM 23.0 °F 11.7 °F 14.0 °F 68% 30.23 in 10.0 mi ESE 11.5 mph - N/A   Clear
7:15 AM 23.0 °F 12.4 °F 14.0 °F 68% 30.24 in 10.0 mi ESE 10.4 mph - N/A   Clear
7:35 AM 23.0 °F 13.9 °F 14.0 °F 68% 30.25 in 10.0 mi East 8.1 mph - N/A   Clear
7:55 AM 24.8 °F 16.1 °F 14.0 °F 64% 30.25 in 10.0 mi ESE 8.1 mph - N/A   Clear
8:15 AM 26.6 °F 21.2 °F 15.8 °F 64% 30.27 in 10.0 mi East 4.6 mph - N/A   Clear
8:35 AM 28.4 °F 22.2 °F 15.8 °F 59% 30.28 in 10.0 mi East 5.8 mph - N/A   Clear
8:55 AM 30.2 °F - 15.8 °F 55% 30.29 in 10.0 mi Calm Calm - N/A   Clear
9:15 AM 32.0 °F 27.5 °F 14.0 °F 48% 30.29 in 10.0 mi East 4.6 mph - N/A   Clear
9:35 AM 32.0 °F 27.5 °F 15.8 °F 51% 30.28 in 10.0 mi SE 4.6 mph - N/A   Clear
9:55 AM 33.8 °F 29.6 °F 17.6 °F 52% 30.28 in 10.0 mi SE 4.6 mph - N/A   Clear
10:15 AM 33.8 °F - 17.6 °F 52% 30.28 in 10.0 mi Calm Calm - N/A   Clear
10:35 AM 35.6 °F - 17.6 °F 48% 30.29 in 10.0 mi Calm Calm - N/A   Clear
10:55 AM 37.4 °F - 17.6 °F 45% 30.29 in 10.0 mi Calm Calm - N/A   Clear
11:15 AM 39.2 °F 37.0 °F 17.6 °F 42% 30.29 in 10.0 mi West 3.5 mph - N/A   Clear
11:35 AM 41.0 °F - 17.6 °F 39% 30.29 in 10.0 mi Calm Calm - N/A   Clear
11:55 AM 41.0 °F 37.1 °F 14.0 °F 33% 30.28 in 10.0 mi South 5.8 mph - N/A   Clear
12:15 PM 41.0 °F 39.0 °F 10.4 °F 29% 30.28 in 10.0 mi WNW 3.5 mph - N/A   Clear
12:35 PM 42.8 °F 39.3 °F 10.4 °F 27% 30.27 in 10.0 mi South 5.8 mph - N/A   Clear
12:55 PM 42.8 °F - 12.2 °F 29% 30.27 in 10.0 mi Calm Calm - N/A   Clear
1:15 PM 42.8 °F 39.3 °F 10.4 °F 27% 30.26 in 10.0 mi West 5.8 mph - N/A   Clear
1:35 PM 44.6 °F 43.1 °F 12.2 °F 27% 30.25 in 10.0 mi NE 3.5 mph - N/A   Clear
1:55 PM 44.6 °F 43.1 °F 10.4 °F 25% 30.25 in 10.0 mi SW 3.5 mph - N/A   Clear
2:15 PM 46.4 °F 43.5 °F 10.4 °F 23% 30.23 in 10.0 mi NW 5.8 mph - N/A   Clear
2:35 PM 46.4 °F 45.2 °F 10.4 °F 23% 30.22 in 10.0 mi NW 3.5 mph - N/A   Clear
2:55 PM 46.4 °F - 10.4 °F 23% 30.20 in 10.0 mi Calm Calm - N/A   Clear
3:15 PM 46.4 °F 45.2 °F 8.6 °F 22% 30.19 in 10.0 mi NNE 3.5 mph - N/A   Clear
3:35 PM 48.2 °F - 10.4 °F 22% 30.19 in 10.0 mi North 8.1 mph - N/A   Clear
3:55 PM 50.0 °F - 8.6 °F 19% 30.18 in 10.0 mi NNW 8.1 mph - N/A   Clear
4:15 PM 48.2 °F - 8.6 °F 20% 30.18 in 10.0 mi NNE 4.6 mph - N/A   Clear
4:35 PM 50.0 °F - 8.6 °F 19% 30.18 in 10.0 mi NW 4.6 mph - N/A   Clear
4:55 PM 50.0 °F - 10.4 °F 20% 30.17 in 10.0 mi North 6.9 mph - N/A   Clear
5:15 PM 51.8 °F - 8.6 °F 18% 30.18 in 10.0 mi North 9.2 mph - N/A   Clear
5:35 PM 50.0 °F - 8.6 °F 19% 30.18 in 10.0 mi NNW 6.9 mph - N/A   Clear
5:55 PM 50.0 °F - 8.6 °F 19% 30.18 in 10.0 mi NNW 6.9 mph - N/A   Clear
6:15 PM 50.0 °F - 8.6 °F 19% 30.19 in 10.0 mi NNW 8.1 mph - N/A   Clear
6:35 PM 50.0 °F - 8.6 °F 19% 30.20 in 10.0 mi North 5.8 mph - N/A   Clear
6:55 PM 48.2 °F - 8.6 °F 20% 30.21 in 10.0 mi NNE 4.6 mph - N/A   Clear
7:15 PM 46.4 °F - 8.6 °F 22% 30.21 in 10.0 mi Calm Calm - N/A   Clear
7:35 PM 46.4 °F 44.3 °F 8.6 °F 22% 30.22 in 10.0 mi SSW 4.6 mph - N/A   Clear
7:55 PM 44.6 °F 42.2 °F 8.6 °F 23% 30.22 in 10.0 mi SSW 4.6 mph - N/A   Clear
8:15 PM 41.0 °F 35.8 °F 8.6 °F 26% 30.24 in 10.0 mi WNW 8.1 mph - N/A   Clear
8:35 PM 42.8 °F 40.1 °F 12.2 °F 29% 30.24 in 10.0 mi West 4.6 mph - N/A   Clear
8:55 PM 41.0 °F 38.0 °F 12.2 °F 31% 30.24 in 10.0 mi SW 4.6 mph - N/A   Clear
9:15 PM 42.8 °F 39.3 °F 8.6 °F 25% 30.24 in 10.0 mi SSW 5.8 mph - N/A   Clear
9:35 PM 41.0 °F 39.0 °F 8.6 °F 26% 30.25 in 10.0 mi South 3.5 mph - N/A   Clear
9:55 PM 35.6 °F 28.6 °F 10.4 °F 35% 30.25 in 10.0 mi East 9.2 mph - N/A   Clear
10:15 PM 35.6 °F 28.6 °F 8.6 °F 33% 30.25 in 10.0 mi East 9.2 mph - N/A   Clear
10:35 PM 33.8 °F 27.7 °F 10.4 °F 38% 30.25 in 10.0 mi East 6.9 mph - N/A   Clear
10:55 PM 33.8 °F 26.4 °F 10.4 °F 38% 30.25 in 10.0 mi East 9.2 mph - N/A   Clear
11:15 PM 32.0 °F 23.6 °F 12.2 °F 44% 30.25 in 10.0 mi East 10.4 mph - N/A   Clear
11:35 PM 32.0 °F 24.8 °F 10.4 °F 41% 30.25 in 10.0 mi ESE 8.1 mph - N/A   Clear
11:55 PM 32.0 °F 23.6 °F 10.4 °F 41% 30.25 in 10.0 mi ESE 10.4 mph - N/A   Clear